FW8412 Weather Reports


time (UTC)temp
F
wind
direction
speed
knots
gust
knots
rain 1hr
in
rain 24hr
in
rain mn
in
humidity
%
barometer
mb
20260507224322 82 88 0.9 1.7 0.00 0.00 0.00 83 1016.9
20260507223818 82 62 3.5 4.3 0.00 0.00 0.00 82 1016.8
20260507223314 82 80 4.3 6.1 0.00 0.00 0.00 81 1016.8
20260507222812 82 57 1.7 2.6 0.00 0.00 0.00 81 1016.9
20260507222308 82 95 2.6 4.3 0.00 0.00 0.00 82 1016.8
20260507221805 82 170 5.2 7.8 0.00 0.00 0.00 81 1016.7
20260507221302 83 136 4.3 6.1 0.00 0.00 0.00 80 1016.6
20260507220757 83 85 6.1 11.3 0.00 0.00 0.00 80 1016.6
20260507220256 83 77 3.5 5.2 0.00 0.00 0.00 80 1016.5
20260507215752 84 11 2.6 4.3 0.00 0.00 0.00 79 1016.9
20260507215250 84 84 5.2 7.8 0.00 0.00 0.00 78 1016.6
20260507214747 83 105 2.6 5.2 0.00 0.00 0.00 79 1016.8
20260507214244 84 159 1.7 1.7 0.00 0.00 0.00 79 1016.4
20260507213739 84 115 5.2 7.0 0.00 0.00 0.00 79 1016.4
20260507213236 84 90 4.3 5.2 0.00 0.00 0.00 78 1016.2
20260507212732 85 230 4.3 6.1 0.00 0.00 0.00 77 1016.4
20260507212224 84 51 3.5 4.3 0.00 0.00 0.00 78 1016.3
20260507211720 84 38 2.6 4.3 0.00 0.00 0.00 78 1016.5
20260507211216 84 72 2.6 4.3 0.00 0.00 0.00 77 1016.4
20260507210714 84 120 1.7 2.6 0.00 0.00 0.00 79 1016.5
20260507210210 84 39 1.7 2.6 0.00 0.00 0.00 79 1016.5
20260507205707 84 37 7.0 8.7 0.00 0.00 0.00 78 1016.3
20260507205204 84 94 6.1 9.6 0.00 0.00 0.00 78 1016.2
20260507204659 84 124 4.3 5.2 0.00 0.00 0.00 78 1016.1
20260507204158 85 67 3.5 6.1 0.00 0.00 0.00 77 1016.2
20260507203656 86 64 5.2 7.0 0.00 0.00 0.00 76 1016.2
20260507203152 86 51 4.3 5.2 0.00 0.00 0.00 75 1016.1
20260507202648 86 101 5.2 7.0 0.00 0.00 0.00 75 1016.1
20260507202144 86 61 4.3 6.1 0.00 0.00 0.00 75 1016.1
20260507201639 87 16 2.6 4.3 0.00 0.00 0.00 74 1016.3
20260507201137 87 29 4.3 5.2 0.00 0.00 0.00 73 1016.2
20260507200633 86 87 5.2 7.0 0.00 0.00 0.00 74 1016.7
20260507200129 88 97 2.6 4.3 0.00 0.00 0.00 71 1016.7
20260507195626 89 113 4.3 7.8 0.00 0.00 0.00 72 1016.7
20260507195123 88 243 2.6 4.3 0.00 0.00 0.00 72 1016.7
20260507194620 88 59 3.5 5.2 0.00 0.00 0.00 72 1016.5
20260507194115 87 88 2.6 4.3 0.00 0.00 0.00 72 1016.5
20260507193612 88 10 2.6 4.3 0.00 0.00 0.00 72 1016.7
20260507193109 87 41 4.3 7.0 0.00 0.00 0.00 72 1016.3
20260507192605 88 120 2.6 2.6 0.00 0.00 0.00 73 1016.7
20260507192103 88 139 2.6 4.3 0.00 0.00 0.00 72 1016.8
20260507191558 86 265 3.5 6.1 0.00 0.00 0.00 75 1016.6
20260507191055 87 49 3.5 6.1 0.00 0.00 0.00 72 1016.7
20260507190552 89 89 5.2 9.6 0.00 0.00 0.00 71 1016.7
20260507190051 89 97 2.6 4.3 0.00 0.00 0.00 71 1016.8
20260507185549 88 32 5.2 7.0 0.00 0.00 0.00 71 1016.7
20260507185045 88 105 5.2 7.8 0.00 0.00 0.00 70 1016.7
20260507184544 89 127 4.3 7.0 0.00 0.00 0.00 69 1016.8
20260507184041 89 68 2.6 2.6 0.00 0.00 0.00 68 1016.7
20260507183537 88 123 3.5 6.1 0.00 0.00 0.00 71 1016.9
20260507183034 88 22 6.1 7.8 0.00 0.00 0.00 71 1017.1
20260507182530 88 60 3.5 7.0 0.00 0.00 0.00 70 1017.0
20260507182026 89 88 5.2 7.0 0.00 0.00 0.00 67 1016.9
20260507181524 88 36 2.6 4.3 0.00 0.00 0.00 70 1017.2
20260507181020 89 84 1.7 2.6 0.00 0.00 0.00 70 1017.0
20260507180516 89 110 5.2 7.0 0.00 0.00 0.00 70 1016.9
20260507180013 89 137 0.9 1.7 0.00 0.00 0.00 69 1017.3
20260507175509 88 28 0.9 1.7 0.00 0.00 0.00 70 1017.3
20260507175007 89 92 6.1 7.8 0.00 0.00 0.00 68 1017.4
20260507174504 89 36 3.5 5.2 0.00 0.00 0.00 70 1017.4
20260507174002 88 52 2.6 4.3 0.00 0.00 0.00 70 1017.5
20260507173458 88 109 2.6 4.3 0.00 0.00 0.00 70 1017.8
20260507172955 88 48 4.3 7.0 0.00 0.00 0.00 70 1017.7
20260507172451 89 116 6.1 7.0 0.00 0.00 0.00 68 1017.8
20260507171948 88 84 4.3 5.2 0.00 0.00 0.00 68 1018.1
20260507171444 89 88 4.3 5.2 0.00 0.00 0.00 67 1017.8
20260507170941 89 34 2.6 4.3 0.00 0.00 0.00 67 1018.2
20260507170438 89 63 2.6 4.3 0.00 0.00 0.00 68 1017.9
20260507165934 88 158 2.6 4.3 0.00 0.00 0.00 71 1018.0
20260507165430 89 40 5.2 7.0 0.00 0.00 0.00 67 1018.2
20260507164926 89 99 3.5 5.2 0.00 0.00 0.00 70 1018.2
20260507164424 89 73 4.3 6.1 0.00 0.00 0.00 70 1018.1
20260507163920 88 97 2.6 5.2 0.00 0.00 0.00 69 1018.3
20260507163418 88 65 4.3 6.1 0.00 0.00 0.00 70 1018.6
20260507162914 89 71 5.2 7.0 0.00 0.00 0.00 71 1018.5
20260507162410 89 215 0.0 0.0 0.00 0.00 0.00 70 1018.7
20260507161908 88 10 4.3 7.0 0.00 0.00 0.00 70 1018.8
20260507161403 87 28 4.3 6.1 0.00 0.00 0.00 73 1018.8
20260507160900 88 147 3.5 5.2 0.00 0.00 0.00 74 1018.6
20260507160356 87 68 7.8 9.6 0.00 0.00 0.00 73 1018.6
20260507155852 88 85 6.1 11.3 0.00 0.00 0.00 71 1018.7
20260507155348 88 79 2.6 4.3 0.00 0.00 0.00 71 1018.6
20260507154845 88 67 7.8 9.6 0.00 0.00 0.00 73 1018.8
20260507154342 89 12 3.5 6.1 0.00 0.00 0.00 69 1019.1
20260507153839 88 72 4.3 7.0 0.00 0.00 0.00 71 1019.2
20260507153336 89 49 4.3 6.1 0.00 0.00 0.00 72 1018.6
20260507152832 89 23 5.2 7.0 0.00 0.00 0.00 70 1019.0
20260507152328 88 36 2.6 4.3 0.00 0.00 0.00 72 1018.9
20260507151825 88 71 3.5 4.3 0.00 0.00 0.00 72 1018.8
20260507151321 87 83 4.3 5.2 0.00 0.00 0.00 74 1018.9
20260507150818 89 25 5.2 7.0 0.00 0.00 0.00 72 1019.0
20260507150314 88 203 2.6 2.6 0.00 0.00 0.00 72 1018.9
20260507145811 89 331 1.7 2.6 0.00 0.00 0.00 72 1019.1
20260507145307 89 141 3.5 5.2 0.00 0.00 0.00 70 1018.9
20260507144805 89 32 2.6 2.6 0.00 0.00 0.00 70 1019.1
20260507144302 88 103 0.9 1.7 0.00 0.00 0.00 73 1019.1
20260507143758 87 74 3.5 4.3 0.00 0.00 0.00 73 1019.3
20260507143256 87 85 1.7 2.6 0.00 0.00 0.00 72 1019.3
20260507142751 88 24 2.6 2.6 0.00 0.00 0.00 73 1019.5
20260507142248 87 65 2.6 5.2 0.00 0.00 0.00 71 1019.2
20260507141745 86 352 4.3 7.0 0.00 0.00 0.00 73 1019.4
20260507141242 85 155 0.0 0.9 0.00 0.00 0.00 73 1019.6
20260507140738 85 138 0.9 0.9 0.00 0.00 0.00 75 1019.3
20260507140236 87 33 3.5 5.2 0.00 0.00 0.00 74 1019.1
20260507135732 86 59 2.6 4.3 0.00 0.00 0.00 72 1019.3
20260507135230 87 312 2.6 2.6 0.00 0.00 0.00 71 1019.5
20260507134726 86 66 3.5 5.2 0.00 0.00 0.00 70 1019.5
20260507134222 87 96 2.6 4.3 0.00 0.00 0.00 70 1019.5
20260507133718 87 117 0.9 1.7 0.00 0.00 0.00 69 1019.4
20260507133215 87 117 3.5 5.2 0.00 0.00 0.00 68 1019.8
20260507132713 87 82 2.6 2.6 0.00 0.00 0.00 70 1019.6
20260507132209 88 105 2.6 2.6 0.00 0.00 0.00 69 1019.5
20260507131706 87 357 0.9 1.7 0.00 0.00 0.00 69 1019.5
20260507131204 86 123 1.7 1.7 0.00 0.00 0.00 71 1019.2
20260507130700 86 94 4.3 6.1 0.00 0.00 0.00 71 1019.4
20260507130158 86 155 1.7 2.6 0.00 0.00 0.00 70 1019.3
20260507125656 86 86 2.6 2.6 0.00 0.00 0.00 71 1019.1
20260507125154 86 98 4.3 5.2 0.00 0.00 0.00 71 1019.3
20260507124649 85 176 1.7 2.6 0.00 0.00 0.00 71 1019.3
20260507124147 85 77 1.7 2.6 0.00 0.00 0.00 71 1019.1
20260507123646 85 182 0.0 0.0 0.00 0.00 0.00 72 1019.1
20260507123142 85 135 1.7 2.6 0.00 0.00 0.00 70 1019.4
20260507122637 86 154 1.7 2.6 0.00 0.00 0.00 70 1019.0
20260507122133 85 198 0.0 0.0 0.00 0.00 0.00 71 1018.9
20260507121629 85 106 2.6 4.3 0.00 0.00 0.00 71 1019.0
20260507121126 84 83 1.7 2.6 0.00 0.00 0.00 71 1018.8
20260507120622 85 182 0.0 0.0 0.00 0.00 0.00 71 1018.7
20260507120118 84 163 0.0 0.0 0.00 0.00 0.00 73 1018.7
20260507115615 84 132 0.9 0.9 0.00 0.00 0.00 74 1018.7
20260507115111 84 146 0.0 0.9 0.00 0.00 0.00 74 1018.8
20260507114607 83 184 0.0 0.0 0.00 0.00 0.00 75 1018.6
20260507114104 82 172 0.0 0.0 0.00 0.00 0.00 76 1018.3
20260507113601 81 144 0.9 0.9 0.00 0.00 0.00 78 1018.6
20260507113058 81 121 0.0 0.9 0.00 0.00 0.00 77 1018.5
20260507112556 81 176 0.0 0.0 0.00 0.00 0.00 78 1018.3
20260507112053 80 165 0.9 0.9 0.00 0.00 0.00 79 1018.2
20260507111550 80 163 0.0 0.0 0.00 0.00 0.00 78 1018.3
20260507111046 80 151 0.9 0.9 0.00 0.00 0.00 80 1018.5
20260507110543 79 169 0.0 0.0 0.00 0.00 0.00 81 1018.5
20260507110039 78 172 0.9 0.9 0.00 0.00 0.00 83 1018.3
20260507105536 78 162 0.0 0.0 0.00 0.00 0.00 82 1018.2
20260507105032 78 171 0.0 0.0 0.00 0.00 0.00 82 1018.5
20260507104530 77 189 0.0 0.0 0.00 0.00 0.00 84 1018.2
20260507104026 75 198 0.0 0.0 0.00 0.00 0.00 87 1018.1
20260507103522 75 198 0.0 0.0 0.00 0.00 0.00 88 1018.3
20260507103019 74 200 0.0 0.0 0.00 0.00 0.00 89 1018.0
20260507102516 74 193 0.0 0.0 0.00 0.00 0.00 89 1018.2
20260507102012 73 213 0.0 0.0 0.00 0.00 0.00 89 1018.0
20260507101507 73 233 0.0 0.0 0.00 0.00 0.00 90 1018.1
20260507101004 73 239 0.0 0.0 0.00 0.00 0.00 90 1018.0
20260507100501 73 202 0.0 0.0 0.00 0.00 0.00 90 1018.1
20260507095959 73 205 0.0 0.0 0.00 0.00 0.00 90 1017.9
20260507095457 73 216 0.0 0.0 0.00 0.00 0.00 90 1018.0
20260507094953 73 209 0.0 0.0 0.00 0.00 0.00 91 1017.8
20260507094450 72 176 0.0 0.0 0.00 0.00 0.00 92 1017.6
20260507093947 72 177 0.0 0.0 0.00 0.00 0.00 91 1017.5
20260507093444 72 177 0.0 0.0 0.00 0.00 0.00 91 1017.4
20260507092943 72 168 0.0 0.0 0.00 0.00 0.00 90 1017.4
20260507092438 73 153 0.9 0.9 0.00 0.00 0.00 90 1017.4
20260507091936 73 179 0.0 0.0 0.00 0.00 0.00 89 1017.4
20260507091432 73 176 0.0 0.0 0.00 0.00 0.00 89 1017.7
20260507090928 73 171 0.0 0.0 0.00 0.00 0.00 89 1017.8
20260507090424 73 172 0.0 0.0 0.00 0.00 0.00 88 1017.8
20260507085915 73 171 0.0 0.0 0.00 0.00 0.00 88 1017.9
20260507085412 73 187 0.0 0.0 0.00 0.00 0.00 88 1017.8
20260507084909 73 179 0.0 0.0 0.00 0.00 0.00 88 1017.7
20260507084406 73 174 0.0 0.0 0.00 0.00 0.00 88 1018.0
20260507083903 73 175 0.0 0.0 0.00 0.00 0.00 88 1017.9
20260507083359 73 139 0.9 0.9 0.00 0.00 0.00 88 1018.1
20260507082856 74 147 0.9 0.9 0.00 0.00 0.00 87 1018.0
20260507082351 74 182 0.0 0.0 0.00 0.00 0.00 87 1018.0
20260507081849 74 180 0.0 0.0 0.00 0.00 0.00 88 1017.8
20260507081345 74 178 0.0 0.0 0.00 0.00 0.00 88 1017.9
20260507080842 74 171 0.0 0.9 0.00 0.00 0.00 88 1017.6
20260507080338 74 176 0.0 0.0 0.00 0.00 0.00 88 1017.7
20260507075833 74 186 0.0 0.0 0.00 0.00 0.00 88 1017.8
20260507075329 74 201 0.0 0.0 0.00 0.00 0.00 88 1017.9
20260507074826 74 197 0.0 0.0 0.00 0.00 0.00 88 1017.8
20260507074324 74 212 0.0 0.0 0.00 0.00 0.00 88 1017.7
20260507073821 74 204 0.0 0.0 0.00 0.00 0.00 89 1017.8
20260507073317 74 196 0.0 0.0 0.00 0.00 0.00 89 1017.8
20260507072815 73 176 0.0 0.0 0.00 0.00 0.00 90 1017.8
20260507072312 74 175 0.0 0.0 0.00 0.00 0.00 89 1018.0
20260507071809 74 182 0.0 0.0 0.00 0.00 0.00 88 1017.9
20260507071306 74 178 0.0 0.0 0.00 0.00 0.00 88 1017.8
20260507070802 74 179 0.0 0.0 0.00 0.00 0.00 88 1017.9
20260507070300 75 182 0.0 0.0 0.00 0.00 0.00 87 1017.8
20260507065756 75 183 0.0 0.0 0.00 0.00 0.00 86 1018.1
20260507065253 75 182 0.0 0.0 0.00 0.00 0.00 87 1018.1
20260507064750 75 180 0.0 0.0 0.00 0.00 0.00 88 1018.0
20260507064249 75 175 0.0 0.0 0.00 0.00 0.00 87 1018.1
20260507063746 75 188 0.0 0.0 0.00 0.00 0.00 87 1018.2
20260507063243 75 186 0.0 0.0 0.00 0.00 0.00 87 1018.3
20260507062740 75 187 0.0 0.0 0.00 0.00 0.00 87 1018.3
20260507062237 74 181 0.0 0.0 0.00 0.00 0.00 88 1018.3
20260507061735 75 179 0.0 0.0 0.00 0.00 0.00 87 1018.3
20260507061232 75 177 0.0 0.0 0.00 0.00 0.00 86 1018.6
20260507060731 75 179 0.0 0.0 0.00 0.00 0.00 86 1018.7
20260507060227 75 174 0.0 0.0 0.00 0.00 0.00 86 1018.9
20260507055723 75 168 0.0 0.0 0.00 0.00 0.00 86 1018.7
20260507055219 75 172 0.0 0.0 0.00 0.00 0.00 86 1018.8
20260507054715 75 176 0.0 0.9 0.00 0.00 0.00 85 1019.0
20260507054212 75 179 0.9 0.9 0.00 0.00 0.00 85 1018.9
20260507053710 75 202 0.0 0.0 0.00 0.00 0.00 85 1019.2
20260507053207 76 89 0.9 1.7 0.00 0.00 0.00 85 1019.2
20260507052706 76 152 0.9 0.9 0.00 0.00 0.00 85 1019.3
20260507052201 76 183 0.0 0.0 0.00 0.00 0.00 85 1019.3
20260507051700 76 184 0.0 0.0 0.00 0.00 0.00 85 1019.3
20260507051156 76 177 0.0 0.0 0.00 0.00 0.00 85 1019.4
20260507050653 76 176 0.0 0.0 0.00 0.00 0.00 86 1019.4
20260507050150 76 154 0.9 0.9 0.00 0.00 0.00 85 1019.4
20260507045647 76 169 0.9 0.9 0.00 0.00 0.00 85 1019.5
20260507045143 77 164 0.0 0.0 0.00 0.00 0.00 83 1019.8
20260507044640 77 153 0.9 1.7 0.00 0.00 0.00 84 1019.8
20260507044137 76 170 0.0 0.9 0.00 0.00 0.00 85 1019.9
20260507043633 77 176 0.9 0.9 0.00 0.00 0.00 85 1019.8
20260507043130 77 148 0.0 0.0 0.00 0.00 0.00 84 1019.7
20260507042626 77 177 0.0 0.0 0.00 0.00 0.00 85 1019.9
20260507042121 76 103 2.6 2.6 0.00 0.00 0.00 85 1020.0
20260507041619 77 189 0.9 1.7 0.00 0.00 0.00 84 1019.9
20260507041115 77 176 0.9 1.7 0.00 0.00 0.00 84 1020.0
20260507040612 78 152 0.9 0.9 0.00 0.00 0.00 83 1020.2
20260507040109 78 103 0.9 0.9 0.00 0.00 0.00 82 1020.0
20260507035605 78 134 0.9 0.9 0.00 0.00 0.00 83 1020.2
20260507035101 78 171 0.9 0.9 0.00 0.00 0.00 83 1020.1
20260507034558 78 152 0.9 0.9 0.00 0.00 0.00 83 1020.2
20260507034056 78 186 0.9 0.9 0.00 0.00 0.00 84 1020.1
20260507033554 77 177 0.9 0.9 0.00 0.00 0.00 84 1020.1
20260507033050 78 187 0.9 0.9 0.00 0.00 0.00 84 1020.4
20260507032548 78 157 0.9 0.9 0.00 0.00 0.00 83 1020.5
20260507032044 78 146 0.9 0.9 0.00 0.00 0.00 83 1020.1
20260507031540 78 172 0.9 0.9 0.00 0.00 0.00 83 1020.2
20260507031038 78 148 0.9 0.9 0.00 0.00 0.00 83 1020.3
20260507030534 78 151 0.9 0.9 0.00 0.00 0.00 83 1020.3
20260507030032 78 146 0.9 1.7 0.00 0.00 0.00 83 1020.4
20260507025529 78 164 1.7 1.7 0.00 0.00 0.00 83 1020.5
20260507025026 78 170 0.9 1.7 0.00 0.00 0.00 83 1020.4
20260507024524 79 165 2.6 4.3 0.00 0.00 0.00 82 1020.2
20260507024020 79 156 2.6 2.6 0.00 0.00 0.00 82 1020.5
20260507023516 79 122 2.6 2.6 0.00 0.00 0.00 82 1020.4
20260507023015 79 105 1.7 2.6 0.00 0.00 0.00 82 1020.5
20260507022511 79 134 1.7 2.6 0.00 0.00 0.00 82 1020.4
20260507022006 79 162 1.7 1.7 0.00 0.00 0.00 83 1020.3
20260507021502 79 137 1.7 1.7 0.00 0.00 0.00 84 1020.2
20260507020959 80 113 3.5 4.3 0.00 0.00 0.00 85 1020.3
20260507020456 79 131 0.9 1.7 0.00 0.00 0.00 87 1020.0
20260507015953 80 144 0.9 1.7 0.00 0.00 0.00 88 1020.0
20260507015451 80 152 1.7 2.6 0.00 0.00 0.00 88 1020.1
20260507014948 80 122 0.9 1.7 0.00 0.00 0.00 88 1019.5
20260507014445 80 109 2.6 2.6 0.00 0.00 0.00 88 1019.6
20260507013941 80 156 0.9 1.7 0.00 0.00 0.00 87 1019.9
20260507013437 80 183 0.9 0.9 0.00 0.00 0.00 88 1019.4
20260507012935 80 210 0.9 0.9 0.00 0.00 0.00 89 1019.5
20260507012432 80 174 0.9 0.9 0.00 0.00 0.00 88 1019.5
20260507011928 80 121 1.7 1.7 0.00 0.00 0.00 89 1019.5
20260507011426 81 185 0.0 0.9 0.00 0.00 0.00 88 1019.3
20260507010925 81 179 1.7 1.7 0.00 0.00 0.00 88 1019.2
20260507010421 81 195 0.9 0.9 0.00 0.00 0.00 88 1019.1
20260507005918 81 201 0.0 0.0 0.00 0.00 0.00 88 1019.2
20260507005415 81 182 1.7 1.7 0.00 0.00 0.00 88 1019.2
20260507004912 81 226 0.9 0.9 0.00 0.00 0.00 88 1018.9
20260507004408 81 172 1.7 1.7 0.00 0.00 0.00 88 1019.0
20260507003906 81 201 0.0 0.0 0.00 0.00 0.00 87 1019.0
20260507003401 81 188 1.7 1.7 0.00 0.00 0.00 88 1018.8
20260507002857 81 229 0.0 0.0 0.00 0.00 0.00 88 1018.9
20260507002353 82 205 0.9 1.7 0.00 0.00 0.00 87 1018.9
20260507001850 81 209 0.0 0.9 0.00 0.00 0.00 87 1018.9
20260507001347 81 176 0.9 0.9 0.00 0.00 0.00 87 1018.7
20260507000843 81 233 0.9 0.9 0.00 0.00 0.00 87 1018.7
20260507000339 82 224 2.6 2.6 0.00 0.00 0.00 87 1018.3
20260506235836 82 318 0.9 0.9 0.00 0.00 0.00 87 1018.6
20260506235333 82 202 0.9 0.9 0.00 0.00 0.00 87 1018.5
20260506234828 82 237 0.9 1.7 0.00 0.00 0.00 86 1018.5
20260506234326 82 193 0.9 0.9 0.00 0.00 0.00 86 1018.1
20260506233824 82 204 0.9 1.7 0.00 0.00 0.00 86 1017.9
20260506233319 82 224 0.9 0.9 0.00 0.00 0.00 85 1018.1
20260506232817 83 222 2.6 4.3 0.00 0.00 0.00 85 1018.2
20260506232312 83 258 0.9 0.9 0.00 0.00 0.00 85 1017.8
20260506231809 83 260 0.9 1.7 0.00 0.00 0.00 84 1017.8
20260506231307 83 196 0.9 1.7 0.00 0.00 0.00 84 1017.8
20260506230804 84 259 0.0 0.9 0.00 0.00 0.00 83 1017.7
20260506230301 84 223 1.7 1.7 0.00 0.00 0.00 83 1017.8
20260506225757 85 281 2.6 2.6 0.00 0.00 0.00 81 1017.5
20260506225254 85 237 1.7 1.7 0.00 0.00 0.00 79 1017.4
20260506224750 86 215 2.6 4.3 0.00 0.00 0.00 78 1017.6